Marcelo Figueiredo

Chefscout - Sampaio Correa
3 Apr 2027
Samstag
Verarbeitung

Persönlichkeit

Anpassungsfähigkeit (7) Ehrgeiz (2) Kontroverse (18) Loyalität (17) Druck (9) Professionalität (14) Fairness (1) Temperament (12)

Profil

Trainerstil Demokratisch
Lizenz Nationale B
Entschlossenheit 5
Menschenführung 8
Motivation 4
Disziplin 7
Arbeitszufriedenheit
49%
Ermüdung
0%
Rolle Chefscout
Gehalt 9.8K p/W
Vertrag 14.03.2029

Leistung

Verhalten Normal
Trainingseffektivität
12%
Spielerentwicklung
45%
Verletzungsprävention
40%
Taktische Umsetzung
25%

Letzte Ereignisse

Nahm an einer Scouting-Besprechung teil 7T her
Nahm an einer Scouting-Besprechung teil 7T her
Nahm an einer Scouting-Besprechung teil 7T her
Nahm an einer Scouting-Besprechung teil 7T her
Nahm an einer Scouting-Besprechung teil 7T her
Nahm an einer Scouting-Besprechung teil 7T her
Nahm an einer Scouting-Besprechung teil 7T her
Spieler begutachtet 7T her

Aktuell beobachtet

178
Spieler Verein Status Fähigkeit Vertrauen Beobachtet Zuletzt beobachtet Letzte Stimme
François Kamano Sochi Aktiv 105 / 110 40% 2 27.03.2027 -
Mourad Tijuana Aktiv 117 / 99 40% 1 27.03.2027 -
Sam Nombe Milton Keynes Dons Aktiv 98 / 105 40% 3 23.03.2027 -
Giacomo Zecca Torres Aktiv 106 / 109 40% 2 23.03.2027 -
Mika Lusitânia Lourosa Aktiv 100 / 98 40% 3 21.03.2027 -
Mario Ravasio Arezzo Aktiv 111 / 120 40% 1 21.03.2027 -
Matty Stevens AFC Wimbledon Aktiv 114 / 115 40% 5 19.03.2027 -
Yurii Klymchuk Kolos Aktiv 108 / 114 40% 2 19.03.2027 -
Iacovelli Gaziantep Aktiv 107 / 106 40% 2 17.03.2027 -
Daniel Vašulín Zbrojovka Brno Aktiv 109 / 131 40% 2 17.03.2027 -
José Martínes CSKA 1948 Aktiv 110 / 90 40% 2 16.03.2027 -
Danny Butterworth Bromley Aktiv 96 / 86 40% 1 16.03.2027 -
Yeangel Montero Naxxar Lions Aktiv 108 / 104 40% 3 15.03.2027 -
Gabriel Charpentier Cracovia Aktiv 119 / 100 40% 1 14.03.2027 -
Mo Dauda Portimonense Aktiv 93 / 96 40% 4 13.03.2027 -
Kévin Zohi Torreense Aktiv 128 / 95 40% 2 13.03.2027 -
Seidu Basit Ashanti Gold Aktiv 93 / 81 40% 2 11.03.2027 -
Rui Pedro Chaves Aktiv 120 / 102 40% 8 10.03.2027 -
Yassin Fortuné Vizela Aktiv 114 / 116 40% 5 10.03.2027 -
Héctor Hernández Gil Vicente Aktiv 121 / 126 40% 2 09.03.2027 -
Jair Silva Leiria Aktiv 125 / 108 40% 7 08.03.2027 -
Louis Appéré Cambridge United Aktiv 101 / 114 40% 1 08.03.2027 -
Martín Álvarez Barnsley Aktiv 124 / 124 40% 3 07.03.2027 -
Albek Gongapshev Shinnik Aktiv 82 / 96 40% 1 06.03.2027 -
Gabriel Barbosa Farense Aktiv 98 / 126 40% 3 05.03.2027 -
Samy Merheg Alverca Aktiv 98 / 135 40% 2 05.03.2027 -
Dani Gómez Zaragoza Aktiv 127 / 113 40% 1 04.03.2027 -
Peter Itodo Metalist Aktiv 99 / 108 40% 1 04.03.2027 -
Jerónimo Porto Lapegüe Slask Aktiv 104 / 114 40% 1 02.03.2027 -
Moussakoye Diallo Stade Malien Aktiv 95 / 102 40% 1 02.03.2027 -
Amos Inusah Wa All Stars Aktiv 111 / 93 40% 4 26.02.2027 -
André Clovis Académico de Viseu Aktiv 131 / 136 40% 5 25.02.2027 -
José Bica Leixões Aktiv 108 / 100 40% 3 24.02.2027 -
Fábio Tavares Newport County Aktiv 91 / 113 40% 2 24.02.2027 -
Juanda Fuentes Penafiel Aktiv 116 / 98 40% 3 23.02.2027 -
Danyil Alefirenko Chornomorets Aktiv 96 / 99 40% 3 17.02.2027 -
Kwame Opoku Asante Kotoko Aktiv 112 / 106 40% 2 15.02.2027 -
Lewis McCann Fleetwood Town Aktiv 89 / 114 40% 2 14.02.2027 -
Ivan Luquetta Neftekhimik Aktiv 82 / 87 40% 1 12.02.2027 -
Bogdan Petrović TSC Aktiv 113 / 95 40% 1 10.02.2027 -
Filip Kubala Banik Ostrava Aktiv 134 / 125 40% 1 10.02.2027 -
Mésaque Djú Portimonense Aktiv 104 / 98 40% 2 09.02.2027 -
Celso Sidney Cherno More Aktiv 103 / 88 40% 1 09.02.2027 -
Khayon Edwards Estoril Praia Aktiv 105 / 106 40% 3 06.02.2027 -
Rodrigo Marquês Oliveirense Aktiv 102 / 80 40% 1 06.02.2027 -
Jorge Aguirre Torreense Aktiv 106 / 94 40% 2 03.02.2027 -
Bienvenue Kanakimana Zbrojovka Brno Aktiv 126 / 99 40% 2 01.02.2027 -
Edarlyn Reyes Arsenal Tula Aktiv 124 / 94 40% 1 01.02.2027 -
Lazar Mijović Cukaricki Abgelehnt 120 / 102 40% 3 29.01.2027 Ablehnen
Nardin Mulahusejnović Vojvodina Aktiv 126 / 117 40% 1 29.01.2027 -
Marcus Browne AFC Wimbledon Aktiv 113 / 102 40% 1 28.01.2027 -
Raúl Alcaina Penafiel Aktiv 112 / 87 40% 3 27.01.2027 -
Marko Božić Wisla Krakow Aktiv 107 / 98 40% 1 27.01.2027 -
Uriël Van Aalst Willem II Aktiv 105 / 103 40% 1 26.01.2027 -
Osman Partey BA All Stars Aktiv 85 / 83 40% 1 24.01.2027 -
Tenton Yenne Baltika Aktiv 116 / 127 40% 1 21.01.2027 -
Assad Al Hamlawi Universitatea Craiova Aktiv 123 / 132 40% 2 20.01.2027 -
Diego Valencia Gornik Leczna Aktiv 112 / 110 40% 1 20.01.2027 -
Yan Maranhão Moreirense Aktiv 113 / 104 40% 1 17.01.2027 -
Guilherme Neiva AVS Aktiv 118 / 126 40% 1 16.01.2027 -
Callum Stead Barnet Aktiv 91 / 103 40% 1 14.01.2027 -
Rui Costa Port Vale Aktiv 114 / 123 40% 2 11.01.2027 -
Martin Sekulić Ural Aktiv 117 / 89 40% 1 01.12.2026 -
Ciprian Coman Pandurii Aktiv 124 / 106 40% 1 29.11.2026 Mehr Infos nötig
Rodin Quiñónes Dinamo Batumi Aktiv 106 / 122 40% 1 26.11.2026 -
Edwar López Deportes Tolima Aktiv 121 / 114 40% 2 24.11.2026 -
Mihael Mlinarić Zaglebie Aktiv 103 / 92 40% 1 23.11.2026 -
Qara Ozobic Inter Aktiv 111 / 117 40% 1 23.11.2026 -
Lucas González Estudiantes Aktiv 119 / 112 40% 1 22.11.2026 Mehr Infos nötig
Tomáš Zlatohlávek Teplice Aktiv 98 / 93 40% 1 22.11.2026 -
Ihor Krasnopir Polissia Aktiv 110 / 137 40% 1 21.11.2026 -
André Rodrigues Chaves Aktiv 94 / 102 40% 1 21.11.2026 -
Nils Mortimer Académico de Viseu Aktiv 106 / 123 40% 1 21.11.2026 -
Radek Šiler Podbrezova Aktiv 95 / 121 40% 1 17.11.2026 -
Juan Muñoz Leiria Aktiv 134 / 102 40% 3 16.11.2026 -
Miguel Falé Pacos de Ferreira Aktiv 114 / 103 40% 1 16.11.2026 Mehr Infos nötig
Jefry Zapata Once Caldas Aktiv 125 / 113 40% 3 12.11.2026 -
Jáder Obrian Santa Fe Aktiv 113 / 127 40% 1 12.11.2026 -
João Vasco Lusitânia Lourosa Aktiv 98 / 115 40% 3 11.11.2026 -
Alisson Safira Juventude Aktiv 120 / 121 40% 2 10.11.2026 Mehr Infos nötig
Ezequiel Almirón Estudiantes Aktiv 108 / 118 40% 1 10.11.2026 -
Juan Rocca Gimnasia y Tiro Aktiv 110 / 112 40% 2 07.11.2026 -
Iwan Morgan Grimsby Town Aktiv 115 / 116 40% 1 07.11.2026 Mehr Infos nötig
Mohamed Ofkir Valerenga Aktiv 126 / 115 40% 1 06.11.2026 Mehr Infos nötig
Jordan Graham Newport County Aktiv 123 / 91 40% 1 05.11.2026 Mehr Infos nötig
Ruyery Blanco Alianza Petrolera Aktiv 105 / 96 40% 1 05.11.2026 -
David Barbona Defensa y Justicia Verhandlung 130 / 121 40% 2 03.11.2026 Mehr Infos nötig
Rodrigo Bogarín Barracas Central Aktiv 121 / 127 40% 2 31.10.2026 -
Luccas Paraízo Leixões Aktiv 92 / 119 40% 1 30.10.2026 -
Maximiliano Gómez Nacional Aktiv 129 / 112 40% 1 30.10.2026 -
Robert Petkovic Zadar Aktiv 124 / 147 40% 1 30.10.2026 -
Mateo Flores Arouca Aktiv 115 / 113 40% 1 30.10.2026 -
Luis Amarilla Cerro Porteno Aktiv 121 / 128 40% 1 28.10.2026 -
Barna Tóth Paksi Aktiv 108 / 104 40% 1 28.10.2026 -
Dinis Rodrigues Porto Aktiv 99 / 109 40% 1 27.10.2026 -
David Costa Torreense Aktiv 91 / 122 40% 1 27.10.2026 -
Gustavo Torres Atletico Nacional Aktiv 123 / 114 40% 1 25.10.2026 -
Juan Infante Atlético Tucumán Aktiv 119 / 119 40% 1 25.10.2026 -
Marco Miori Alvarado Aktiv 109 / 123 40% 1 23.10.2026 -
Aaron Drinan Swindon Town Aktiv 97 / 121 40% 1 23.10.2026 -
Yann Kitala Vizela Aktiv 95 / 112 40% 2 22.10.2026 -
Agustín Venezia Iquique Aktiv 102 / 118 40% 1 22.10.2026 -
Tiago Ribeiro Oliveirense Aktiv 101 / 111 40% 2 21.10.2026 -
Miguel Puche Arouca Aktiv 107 / 124 40% 1 21.10.2026 -
Henry Addo Tondela Aktiv 96 / 100 40% 1 21.10.2026 -
Samuel Bamba Maritimo Aktiv 114 / 105 40% 1 21.10.2026 -
Juan David Rueda Alianza Petrolera Aktiv 110 / 102 40% 1 19.10.2026 -
Samuel Adegbenro Dynamo Kyiv Aktiv 110 / 99 40% 2 18.10.2026 -
João Teixeira Porto Aktiv 106 / 96 40% 1 18.10.2026 -
Jorge Obregón Deportivo Pasto Aktiv 116 / 111 40% 1 17.10.2026 -
Misael Sosa Godoy Cruz Aktiv 113 / 127 40% 1 17.10.2026 -
Enrique Peña Zauner Maritimo Aktiv 118 / 97 40% 1 15.10.2026 -
Santiago Apa All Boys Aktiv 104 / 114 40% 1 14.10.2026 -
Jhonatan Candia Barracas Central Aktiv 128 / 136 40% 1 12.10.2026 -
Luciano Cosentino Wanderers Aktiv 121 / 129 40% 2 09.10.2026 -
Anílson Pacos de Ferreira Aktiv 89 / 121 40% 1 09.10.2026 -
Federico Martínez Liverpool Montevideo Aktiv 121 / 107 40% 1 09.10.2026 -
Ronan Hale Gillingham Aktiv 107 / 116 40% 1 06.10.2026 -
George Puşcaş Dinamo Bucharest Aktiv 125 / 130 40% 1 06.10.2026 -
Gabriel Tigrão Dijon Aktiv 96 / 122 40% 1 05.10.2026 -
Cristian Trujillo Deportes Tolima Aktiv 120 / 124 40% 1 02.10.2026 -
Matías Lacava Vizela Aktiv 106 / 88 40% 1 02.10.2026 -
Pedro Ferreira Leiria Aktiv 106 / 128 40% 1 01.10.2026 -
Faber Gil Jaguares Aktiv 121 / 108 40% 1 01.10.2026 -
Eduardo Henrique Dinamo Zagreb Aktiv 129 / 127 40% 1 30.09.2026 -
Luca Martínez Dupuy Godoy Cruz Aktiv 126 / 122 40% 1 28.09.2026 -
Claudio Salto Almagro Aktiv 100 / 91 40% 1 25.09.2026 -
Facundo Pons San Martín Aktiv 112 / 110 40% 2 23.09.2026 -
Ronaldo Lumungo Pacos de Ferreira Aktiv 109 / 91 40% 1 22.09.2026 -
Joaquín Zeballos Wanderers Aktiv 110 / 101 40% 2 20.09.2026 -
Jano Coronel Quilmes Aktiv 97 / 113 40% 1 19.09.2026 -
Bryan Róchez Leiria Aktiv 98 / 103 40% 1 19.09.2026 -
Isaac James Alverca Aktiv 105 / 95 40% 1 17.09.2026 -
Pablo García Plaza Colonia Aktiv 108 / 104 40% 1 17.09.2026 -
Fernando Bragantino Aktiv 116 / 133 40% 1 15.09.2026 -
Karem Zoabi Torreense Aktiv 104 / 98 40% 1 12.09.2026 -
Marcelo Torres Gimnasia La Plata Aktiv 126 / 114 40% 2 10.09.2026 -
Soufiane Messeguem Académico de Viseu Aktiv 110 / 93 40% 1 08.09.2026 -
Pedro Pelágio Chaves Aktiv 115 / 103 40% 1 08.09.2026 -
Brian White Vancouver Whitecaps Aktiv 116 / 138 40% 1 08.09.2026 -
Mario Rivas Maritimo Aktiv 86 / 108 40% 1 07.09.2026 -
Favio Cabral Mitre Aktiv 119 / 113 40% 1 05.09.2026 -
Tiago Leite Felgueiras Aktiv 97 / 85 40% 2 03.09.2026 -
Marcelo Estigarribia Unión de Santa Fe Aktiv 129 / 131 40% 1 03.09.2026 -
Fabrizio Sartori Independiente Rivadavia Aktiv 120 / 115 40% 1 01.09.2026 -
Kirill Klimov Feirense Aktiv 82 / 92 40% 1 01.09.2026 -
Matheus Machado Heerenveen Aktiv 92 / 106 40% 1 30.08.2026 -
Renzo Machado Liverpool Montevideo Aktiv 103 / 126 40% 1 28.08.2026 -
Michael Vadulli Audax Italiano Aktiv 102 / 105 40% 2 27.08.2026 -
Tobías Cervera Gimnasia y Esgrima Aktiv 112 / 104 40% 1 27.08.2026 -
Pablo Fernández Leiria Aktiv 99 / 125 40% 1 26.08.2026 -
Michel Costa Felgueiras Aktiv 83 / 100 40% 1 26.08.2026 -
Darlan Mendes Sparta Prague Aktiv 105 / 130 40% 1 25.08.2026 -
Francisco Ramos Pacos de Ferreira Aktiv 121 / 124 40% 1 25.08.2026 -
Alexis Steimbach Gimnasia La Plata Aktiv 120 / 110 40% 1 22.08.2026 -
João Queirós Oliveirense Aktiv 115 / 122 40% 1 22.08.2026 -
Facundo Castro Defensor Sporting Aktiv 116 / 117 40% 1 18.08.2026 -
Maximiliano Rodríguez Huachipato Aktiv 104 / 124 40% 1 16.08.2026 -
Douglas Jardel Tacuarembo Aktiv 113 / 112 40% 1 14.08.2026 -
Damien Loppy Vizela Aktiv 89 / 94 40% 1 12.08.2026 -
Thiago Calone All Boys Aktiv 112 / 100 40% 1 11.08.2026 -
Ricardo Schutte Penafiel Aktiv 108 / 98 40% 1 11.08.2026 -
Marcos López San Martín Aktiv 128 / 120 40% 1 11.08.2026 -
Ni Rodrigues Estrela da Amadora Aktiv 79 / 100 40% 1 11.08.2026 -
Maico Quiroz Güemes Aktiv 113 / 128 40% 1 09.08.2026 -
José David Ramírez Leon Aktiv 100 / 117 40% 1 09.08.2026 -
Jean Irmer Criciuma Aktiv 118 / 114 40% 1 07.08.2026 -
Rocco Žiković Red Bull Salzburg Aktiv 106 / 123 40% 1 07.08.2026 -
Enzo Cabrera Danubio Aktiv 98 / 101 40% 1 05.08.2026 -
Cihan Kahraman Académico de Viseu Aktiv 84 / 94 40% 1 03.08.2026 -
Armando Lopes Felgueiras Aktiv 97 / 100 40% 1 03.08.2026 -
Edgar Badía Cultural Leonesa Aktiv 139 / 138 40% 1 03.08.2026 -
Alejandro Rodríguez Deportivo Cali Aktiv 129 / 129 40% 1 03.08.2026 -
Kevin Dawson Defensor Sporting Aktiv 127 / 131 40% 1 02.08.2026 -
Pedro Barcelos Académico de Viseu Aktiv 108 / 93 40% 1 02.08.2026 -
Rodrigo Cáseres Union La Calera Aktiv 107 / 105 40% 1 02.08.2026 -
Lucas Oliveira Mirassol Aktiv 123 / 118 40% 1 01.08.2026 -
Jon Guridi Sevilla Aktiv 136 / 145 40% 1 01.08.2026 -